Tracking 20083 objects as of 9-Dec-2019
HD Live streaming from Space Station
objects crossing your sky now

FENGYUN 1C DEB

Track FENGYUN 1C DEB now!
10-day predictions


NORAD ID: 35235
Int'l Code: 1999-025DQT
Perigee: 498.1 km
Apogee: 539.6 km
Inclination: 99.4 °
Period: 94.9 minutes
Semi major axis: 6889 km
RCS: 0.0016 m2 (small)
Launch date: May 10, 1999
Source: People's Republic of China (PRC)
Launch site: Taiyaun Space Center, China (TSC)

Note: This is SATELLITE DEBRIS
aabbcc
Your satellite tracking list
Your tracking list is empty




NASA's NSSDC Master Catalog

Two Line Element Set (TLE):
1 35235U 99025DQT 19342.44821718  .00008703  00000-0  42691-3 0  9990
2 35235  99.4499  46.4494 0030111  35.9617 324.3629 15.18064631637507
Source of the keplerian elements: AFSPC